Wetterdaten: Mittwoch, 25.02.2015
Datum Zeit Temp. A. Feuchte A. Luftdruck Regen Wind Richtung Richtung Sonnenschein ET UV Solar Taupunkt Windchill Windben Empfang
25.02.2015 00:00 1,7 C 77 % 1015,1 hPa 0,0 l/m 0,0 km/h (0 Bft) SW 225 0 min 0,000 mm 0,0 UV-I 0 W/m -1,9 C 1,7 C 0,0 km/h (0 Bft) 0,00 %
25.02.2015 00:15 1,7 C 76 % 1015,2 hPa 0,0 l/m 0,7 km/h (0 Bft) O-NO 57 0 min 0,000 mm 0,0 UV-I 0 W/m -2,1 C 1,7 C 4,0 km/h (1 Bft) 0,00 %
25.02.2015 00:30 1,7 C 75 % 1015,3 hPa 0,0 l/m 0,7 km/h (0 Bft) W-SW 243 0 min 0,000 mm 0,0 UV-I 0 W/m -2,2 C 1,7 C 4,0 km/h (1 Bft) 0,00 %
25.02.2015 00:45 1,7 C 74 % 1015,5 hPa 0,0 l/m 0,4 km/h (0 Bft) NO 38 0 min 0,000 mm 0,0 UV-I 0 W/m -2,4 C 1,7 C 4,0 km/h (1 Bft) 0,00 %
25.02.2015 01:00 1,7 C 73 % 1015,6 hPa 0,0 l/m 0,7 km/h (0 Bft) W-SW 254 0 min 0,000 mm 0,0 UV-I 0 W/m -2,6 C 1,7 C 4,0 km/h (1 Bft) 0,00 %
25.02.2015 01:15 1,6 C 73 % 1015,7 hPa 0,0 l/m 0,0 km/h (0 Bft) W-NW 292 0 min 0,000 mm 0,0 UV-I 0 W/m -2,7 C 1,6 C 0,0 km/h (0 Bft) 0,00 %
25.02.2015 01:30 1,6 C 74 % 1016,2 hPa 0,0 l/m 0,4 km/h (0 Bft) O-NO 68 0 min 0,000 mm 0,0 UV-I 0 W/m -2,5 C 1,6 C 4,0 km/h (1 Bft) 0,00 %
25.02.2015 01:45 1,6 C 73 % 1016,2 hPa 0,0 l/m 0,0 km/h (0 Bft) S 185 0 min 0,000 mm 0,0 UV-I 0 W/m -2,7 C 1,6 C 0,0 km/h (0 Bft) 0,00 %
25.02.2015 02:00 1,5 C 74 % 1016,1 hPa 0,0 l/m 0,0 km/h (0 Bft) SW 218 0 min 0,000 mm 0,0 UV-I 0 W/m -2,6 C 1,5 C 0,0 km/h (0 Bft) 0,00 %
25.02.2015 02:15 1,5 C 74 % 1016,3 hPa 0,0 l/m 0,0 km/h (0 Bft) S-SO 150 0 min 0,000 mm 0,0 UV-I 0 W/m -2,6 C 1,5 C 0,0 km/h (0 Bft) 0,00 %
25.02.2015 02:30 1,4 C 74 % 1016,3 hPa 0,0 l/m 7,9 km/h (2 Bft) W-SW 256 0 min 0,000 mm 0,0 UV-I 0 W/m -2,7 C -0,1 C 11,9 km/h (2 Bft) 0,00 %
25.02.2015 02:45 1,4 C 75 % 1016,5 hPa 0,0 l/m 0,4 km/h (0 Bft) SW 230 0 min 0,000 mm 0,0 UV-I 0 W/m -2,5 C 1,4 C 4,0 km/h (1 Bft) 0,00 %
25.02.2015 03:00 1,4 C 75 % 1016,4 hPa 0,0 l/m 0,4 km/h (0 Bft) S-SW 197 0 min 0,000 mm 0,0 UV-I 0 W/m -2,5 C 1,4 C 4,0 km/h (1 Bft) 0,00 %
25.02.2015 03:15 1,4 C 75 % 1016,4 hPa 0,0 l/m 0,0 km/h (0 Bft) S-SO 154 0 min 0,000 mm 0,0 UV-I 0 W/m -2,5 C 1,4 C 0,0 km/h (0 Bft) 0,00 %
25.02.2015 03:30 1,3 C 75 % 1016,4 hPa 0,0 l/m 0,0 km/h (0 Bft) SW 226 0 min 0,000 mm 0,0 UV-I 0 W/m -2,6 C 1,3 C 0,0 km/h (0 Bft) 0,00 %
25.02.2015 03:45 1,3 C 75 % 1016,4 hPa 0,0 l/m 0,0 km/h (0 Bft) SW 219 0 min 0,000 mm 0,0 UV-I 0 W/m -2,6 C 1,3 C 0,0 km/h (0 Bft) 0,00 %
25.02.2015 04:00 1,3 C 75 % 1016,4 hPa 0,0 l/m 0,0 km/h (0 Bft) S 184 0 min 0,000 mm 0,0 UV-I 0 W/m -2,6 C 1,3 C 0,0 km/h (0 Bft) 0,00 %
25.02.2015 04:15 1,3 C 76 % 1016,7 hPa 0,0 l/m 0,0 km/h (0 Bft) S-SW 197 0 min 0,000 mm 0,0 UV-I 0 W/m -2,5 C 1,3 C 0,0 km/h (0 Bft) 0,00 %
25.02.2015 04:30 1,3 C 76 % 1016,9 hPa 0,0 l/m 0,0 km/h (0 Bft) S 182 0 min 0,000 mm 0,0 UV-I 0 W/m -2,5 C 1,3 C 0,0 km/h (0 Bft) 0,00 %
25.02.2015 04:45 1,4 C 75 % 1016,7 hPa 0,0 l/m 0,4 km/h (0 Bft) SO 132 0 min 0,000 mm 0,0 UV-I 0 W/m -2,5 C 1,4 C 4,0 km/h (1 Bft) 0,00 %
25.02.2015 05:00 1,4 C 75 % 1017,0 hPa 0,0 l/m 0,0 km/h (0 Bft) O-SO 117 0 min 0,000 mm 0,0 UV-I 0 W/m -2,5 C 1,4 C 0,0 km/h (0 Bft) 0,00 %
25.02.2015 05:15 1,4 C 74 % 1017,1 hPa 0,0 l/m 0,0 km/h (0 Bft) O 95 0 min 0,000 mm 0,0 UV-I 0 W/m -2,7 C 1,4 C 0,0 km/h (0 Bft) 0,00 %
25.02.2015 05:30 1,4 C 72 % 1017,3 hPa 0,0 l/m 0,0 km/h (0 Bft) W-SW 250 0 min 0,000 mm 0,0 UV-I 0 W/m -3,1 C 1,4 C 0,0 km/h (0 Bft) 0,00 %
25.02.2015 05:45 1,5 C 72 % 1017,4 hPa 0,0 l/m 0,4 km/h (0 Bft) S 184 0 min 0,000 mm 0,0 UV-I 0 W/m -3,0 C 1,5 C 4,0 km/h (1 Bft) 0,00 %
25.02.2015 06:00 1,4 C 73 % 1017,4 hPa 0,0 l/m 0,0 km/h (0 Bft) W-SW 250 0 min 0,000 mm 0,0 UV-I 0 W/m -2,9 C 1,4 C 0,0 km/h (0 Bft) 0,00 %
25.02.2015 06:15 1,4 C 73 % 1017,6 hPa 0,0 l/m 0,0 km/h (0 Bft) S 174 0 min 0,000 mm 0,0 UV-I 0 W/m -2,9 C 1,4 C 0,0 km/h (0 Bft) 0,00 %
25.02.2015 06:30 1,4 C 73 % 1017,6 hPa 0,0 l/m 0,0 km/h (0 Bft) SW 219 0 min 0,000 mm 0,0 UV-I 0 W/m -2,9 C 1,4 C 0,0 km/h (0 Bft) 0,00 %
25.02.2015 06:45 1,4 C 71 % 1017,8 hPa 0,0 l/m 0,4 km/h (0 Bft) W-SW 250 0 min 0,000 mm 0,0 UV-I 0 W/m -3,3 C 1,4 C 4,0 km/h (1 Bft) 0,00 %
25.02.2015 07:00 1,4 C 72 % 1017,7 hPa 0,0 l/m 3,2 km/h (1 Bft) W-SW 250 0 min 0,000 mm 0,0 UV-I 0 W/m -3,1 C 1,4 C 4,0 km/h (1 Bft) 0,00 %
25.02.2015 07:15 1,4 C 72 % 1018,0 hPa 0,0 l/m 1,8 km/h (1 Bft) W-SW 256 0 min 0,000 mm 0,0 UV-I 0 W/m -3,1 C 1,4 C 4,0 km/h (1 Bft) 0,00 %
25.02.2015 07:30 1,5 C 71 % 1018,2 hPa 0,0 l/m 0,0 km/h (0 Bft) W 265 0 min 0,000 mm 0,0 UV-I 20 W/m -3,2 C 1,5 C 0,0 km/h (0 Bft) 0,00 %
25.02.2015 07:45 1,6 C 71 % 1018,1 hPa 0,0 l/m 0,0 km/h (0 Bft) SW 228 0 min 0,000 mm 0,0 UV-I 29 W/m -3,1 C 1,6 C 0,0 km/h (0 Bft) 0,00 %
25.02.2015 08:00 1,7 C 71 % 1018,2 hPa 0,0 l/m 4,3 km/h (1 Bft) W-SW 252 0 min 0,000 mm 1,0 UV-I 37 W/m -3,0 C 1,7 C 7,9 km/h (2 Bft) 0,00 %
25.02.2015 08:15 1,8 C 71 % 1018,4 hPa 0,0 l/m 2,2 km/h (1 Bft) W-SW 251 0 min 0,000 mm 1,0 UV-I 62 W/m -2,9 C 1,8 C 4,0 km/h (1 Bft) 0,00 %
25.02.2015 08:30 2,2 C 70 % 1018,5 hPa 0,0 l/m 0,0 km/h (0 Bft) W-SW 255 0 min 0,000 mm 1,0 UV-I 93 W/m -2,7 C 2,2 C 0,0 km/h (0 Bft) 0,00 %
25.02.2015 08:45 2,5 C 74 % 1018,5 hPa 0,0 l/m 0,7 km/h (0 Bft) W-SW 251 0 min 0,000 mm 1,0 UV-I 105 W/m -1,7 C 2,5 C 4,0 km/h (1 Bft) 0,00 %
25.02.2015 09:00 2,7 C 74 % 1017,9 hPa 0,0 l/m 0,7 km/h (0 Bft) SW 216 0 min 0,000 mm 1,0 UV-I 106 W/m -1,5 C 2,7 C 4,0 km/h (1 Bft) 0,00 %
25.02.2015 09:15 2,6 C 75 % 1017,9 hPa 0,0 l/m 0,7 km/h (0 Bft) W-SW 258 0 min 0,000 mm 1,0 UV-I 110 W/m -1,4 C 2,6 C 4,0 km/h (1 Bft) 0,00 %
25.02.2015 09:30 2,8 C 75 % 1018,0 hPa 0,0 l/m 0,0 km/h (0 Bft) S-SW 205 0 min 0,000 mm 1,0 UV-I 103 W/m -1,2 C 2,8 C 0,0 km/h (0 Bft) 0,00 %
25.02.2015 09:45 2,7 C 75 % 1017,4 hPa 0,0 l/m 1,4 km/h (1 Bft) W-SW 253 0 min 0,000 mm 2,0 UV-I 146 W/m -1,3 C 2,7 C 4,0 km/h (1 Bft) 0,00 %
25.02.2015 10:00 3,3 C 72 % 1017,5 hPa 0,0 l/m 0,0 km/h (0 Bft) SW 228 0 min 0,000 mm 2,0 UV-I 174 W/m -1,3 C 3,3 C 0,0 km/h (0 Bft) 0,00 %
25.02.2015 10:15 3,8 C 71 % 1017,4 hPa 0,0 l/m 0,7 km/h (0 Bft) O 91 0 min 0,000 mm 2,0 UV-I 159 W/m -1,0 C 3,8 C 4,0 km/h (1 Bft) 0,00 %
25.02.2015 10:30 3,7 C 72 % 1017,6 hPa 0,0 l/m 0,4 km/h (0 Bft) S 175 0 min 0,000 mm 2,0 UV-I 167 W/m -0,9 C 3,7 C 4,0 km/h (1 Bft) 0,00 %
25.02.2015 10:45 3,7 C 72 % 1017,6 hPa 0,0 l/m 0,0 km/h (0 Bft) SW 220 0 min 0,000 mm 1,0 UV-I 136 W/m -0,9 C 3,7 C 0,0 km/h (0 Bft) 0,00 %
25.02.2015 11:00 3,6 C 73 % 1017,5 hPa 0,0 l/m 2,2 km/h (1 Bft) W-SW 252 0 min 0,000 mm 2,0 UV-I 197 W/m -0,8 C 3,6 C 4,0 km/h (1 Bft) 0,00 %
25.02.2015 11:15 4,2 C 72 % 1017,4 hPa 0,0 l/m 0,0 km/h (0 Bft) W-SW 240 0 min 0,000 mm 2,0 UV-I 220 W/m -0,4 C 4,2 C 0,0 km/h (0 Bft) 0,00 %
25.02.2015 11:30 4,9 C 70 % 1017,3 hPa 0,0 l/m 2,2 km/h (1 Bft) W-SW 256 0 min 0,000 mm 2,0 UV-I 235 W/m -0,1 C 4,9 C 4,0 km/h (1 Bft) 0,00 %
25.02.2015 11:45 4,8 C 65 % 1017,1 hPa 0,0 l/m 2,2 km/h (1 Bft) W-SW 254 0 min 0,000 mm 2,0 UV-I 242 W/m -1,2 C 4,8 C 4,0 km/h (1 Bft) 0,00 %
25.02.2015 12:00 5,4 C 65 % 1016,8 hPa 0,0 l/m 0,0 km/h (0 Bft) N 358 0 min 0,000 mm 2,0 UV-I 227 W/m -0,6 C 5,4 C 0,0 km/h (0 Bft) 0,00 %
25.02.2015 12:15 5,2 C 66 % 1016,9 hPa 0,0 l/m 2,2 km/h (1 Bft) W-SW 251 0 min 0,000 mm 2,0 UV-I 187 W/m -0,6 C 5,2 C 4,0 km/h (1 Bft) 0,00 %
25.02.2015 12:30 5,3 C 64 % 1016,7 hPa 0,0 l/m 0,0 km/h (0 Bft) SW 226 0 min 0,000 mm 1,0 UV-I 147 W/m -0,9 C 5,3 C 0,0 km/h (0 Bft) 0,00 %
25.02.2015 12:45 5,1 C 65 % 1016,9 hPa 0,0 l/m 0,0 km/h (0 Bft) S-SW 202 0 min 0,000 mm 1,0 UV-I 128 W/m -0,9 C 5,1 C 0,0 km/h (0 Bft) 0,00 %
25.02.2015 13:00 4,8 C 66 % 1016,7 hPa 0,0 l/m 0,0 km/h (0 Bft) S 180 0 min 0,000 mm 2,0 UV-I 124 W/m -1,0 C 4,8 C 0,0 km/h (0 Bft) 0,00 %
25.02.2015 13:15 5,1 C 66 % 1016,8 hPa 0,0 l/m 0,0 km/h (0 Bft) S-SW 209 0 min 0,000 mm 1,0 UV-I 133 W/m -0,7 C 5,1 C 0,0 km/h (0 Bft) 0,00 %
25.02.2015 13:30 4,9 C 66 % 1017,2 hPa 0,0 l/m 2,9 km/h (1 Bft) W-SW 255 0 min 0,000 mm 1,0 UV-I 84 W/m -0,9 C 4,9 C 4,0 km/h (1 Bft) 0,00 %
25.02.2015 13:45 4,9 C 67 % 1016,8 hPa 0,0 l/m 0,0 km/h (0 Bft) O-NO 62 0 min 0,000 mm 2,0 UV-I 172 W/m -0,7 C 4,9 C 0,0 km/h (0 Bft) 0,00 %
25.02.2015 14:00 5,0 C 66 % 1016,5 hPa 0,0 l/m 0,0 km/h (0 Bft) SW 232 0 min 0,000 mm 1,0 UV-I 142 W/m -0,8 C 5,0 C 0,0 km/h (0 Bft) 0,00 %
25.02.2015 14:15 5,0 C 65 % 1016,5 hPa 0,0 l/m 1,4 km/h (1 Bft) W-SW 251 0 min 0,000 mm 1,0 UV-I 149 W/m -1,0 C 5,0 C 4,0 km/h (1 Bft) 0,00 %
25.02.2015 14:30 5,4 C 66 % 1016,4 hPa 0,0 l/m 0,0 km/h (0 Bft) W-SW 256 0 min 0,000 mm 1,0 UV-I 117 W/m -0,4 C 5,4 C 0,0 km/h (0 Bft) 0,00 %
25.02.2015 14:45 5,0 C 65 % 1016,7 hPa 0,0 l/m 4,7 km/h (1 Bft) W-SW 252 0 min 0,000 mm 1,0 UV-I 98 W/m -1,0 C 5,0 C 7,9 km/h (2 Bft) 0,00 %
25.02.2015 15:00 4,8 C 65 % 1016,9 hPa 0,0 l/m 0,0 km/h (0 Bft) SW 227 0 min 0,000 mm 1,0 UV-I 99 W/m -1,2 C 4,8 C 0,0 km/h (0 Bft) 0,00 %
25.02.2015 15:15 4,9 C 66 % 1016,9 hPa 0,0 l/m 0,4 km/h (0 Bft) W-SW 251 0 min 0,000 mm 1,0 UV-I 101 W/m -0,9 C 4,9 C 4,0 km/h (1 Bft) 0,00 %
25.02.2015 15:30 4,7 C 67 % 1017,5 hPa 0,0 l/m 0,0 km/h (0 Bft) S-SW 203 0 min 0,000 mm 1,0 UV-I 56 W/m -0,9 C 4,7 C 0,0 km/h (0 Bft) 0,00 %
25.02.2015 15:45 4,7 C 67 % 1017,4 hPa 0,0 l/m 1,4 km/h (1 Bft) W-SW 256 0 min 0,000 mm 1,0 UV-I 80 W/m -0,9 C 4,7 C 4,0 km/h (1 Bft) 0,00 %
25.02.2015 16:00 4,8 C 67 % 1017,3 hPa 0,0 l/m 0,0 km/h (0 Bft) W-SW 252 0 min 0,000 mm 1,0 UV-I 75 W/m -0,8 C 4,8 C 0,0 km/h (0 Bft) 0,00 %
25.02.2015 16:15 4,7 C 65 % 1017,4 hPa 0,0 l/m 1,8 km/h (1 Bft) W-SW 254 0 min 0,000 mm 1,0 UV-I 61 W/m -1,3 C 4,7 C 4,0 km/h (1 Bft) 0,00 %
25.02.2015 16:30 4,5 C 65 % 1017,6 hPa 0,0 l/m 2,2 km/h (1 Bft) W-SW 251 0 min 0,000 mm 1,0 UV-I 63 W/m -1,5 C 4,5 C 4,0 km/h (1 Bft) 0,00 %
25.02.2015 16:45 4,4 C 67 % 1017,7 hPa 0,0 l/m 1,4 km/h (1 Bft) W-SW 251 0 min 0,000 mm 0,0 UV-I 34 W/m -1,2 C 4,4 C 4,0 km/h (1 Bft) 0,00 %
25.02.2015 17:00 4,1 C 66 % 1017,9 hPa 0,0 l/m 4,0 km/h (1 Bft) W-NW 290 0 min 0,000 mm 0,0 UV-I 18 W/m -1,7 C 4,1 C 7,9 km/h (2 Bft) 0,00 %
25.02.2015 17:15 3,9 C 67 % 1018,3 hPa 0,0 l/m 6,5 km/h (2 Bft) W-SW 252 0 min 0,000 mm 0,0 UV-I 9 W/m -1,7 C 3,8 C 7,9 km/h (2 Bft) 0,00 %
25.02.2015 17:30 3,8 C 68 % 1018,5 hPa 0,0 l/m 0,7 km/h (0 Bft) W-SW 251 0 min 0,000 mm 0,0 UV-I 0 W/m -1,6 C 3,8 C 4,0 km/h (1 Bft) 0,00 %
25.02.2015 17:45 3,6 C 70 % 1018,7 hPa 0,0 l/m 2,2 km/h (1 Bft) W-SW 256 0 min 0,000 mm 0,0 UV-I 0 W/m -1,3 C 3,6 C 4,0 km/h (1 Bft) 0,00 %
25.02.2015 18:00 3,5 C 71 % 1018,9 hPa 0,0 l/m 0,4 km/h (0 Bft) W-SW 251 0 min 0,000 mm 0,0 UV-I 0 W/m -1,3 C 3,5 C 4,0 km/h (1 Bft) 0,00 %
25.02.2015 18:15 3,3 C 72 % 1019,2 hPa 0,0 l/m 0,0 km/h (0 Bft) S-SW 197 0 min 0,000 mm 0,0 UV-I 0 W/m -1,3 C 3,3 C 0,0 km/h (0 Bft) 0,00 %
25.02.2015 18:30 3,1 C 73 % 1019,6 hPa 0,0 l/m 0,0 km/h (0 Bft) S 190 0 min 0,000 mm 0,0 UV-I 0 W/m -1,3 C 3,1 C 0,0 km/h (0 Bft) 0,00 %
25.02.2015 18:45 2,9 C 74 % 1019,7 hPa 0,0 l/m 0,0 km/h (0 Bft) S-SW 195 0 min 0,000 mm 0,0 UV-I 0 W/m -1,3 C 2,9 C 0,0 km/h (0 Bft) 0,00 %
25.02.2015 19:00 2,7 C 74 % 1019,8 hPa 0,0 l/m 0,7 km/h (0 Bft) SW 230 0 min 0,000 mm 0,0 UV-I 0 W/m -1,5 C 2,7 C 4,0 km/h (1 Bft) 0,00 %
25.02.2015 19:15 2,7 C 74 % 1019,7 hPa 0,0 l/m 0,0 km/h (0 Bft) SW 214 0 min 0,000 mm 0,0 UV-I 0 W/m -1,5 C 2,7 C 0,0 km/h (0 Bft) 0,00 %
25.02.2015 19:30 2,5 C 75 % 1019,8 hPa 0,0 l/m 0,0 km/h (0 Bft) SW 223 0 min 0,000 mm 0,0 UV-I 0 W/m -1,5 C 2,5 C 0,0 km/h (0 Bft) 0,00 %
25.02.2015 19:45 2,5 C 75 % 1020,0 hPa 0,0 l/m 0,0 km/h (0 Bft) S-SW 197 0 min 0,000 mm 0,0 UV-I 0 W/m -1,5 C 2,5 C 0,0 km/h (0 Bft) 0,00 %
25.02.2015 20:00 2,5 C 77 % 1020,0 hPa 0,0 l/m 0,0 km/h (0 Bft) W-SW 252 0 min 0,000 mm 0,0 UV-I 0 W/m -1,1 C 2,5 C 0,0 km/h (0 Bft) 0,00 %
25.02.2015 20:15 2,5 C 77 % 1020,2 hPa 0,0 l/m 0,0 km/h (0 Bft) SO 138 0 min 0,000 mm 0,0 UV-I 0 W/m -1,1 C 2,5 C 0,0 km/h (0 Bft) 0,00 %
25.02.2015 20:30 2,5 C 77 % 1020,4 hPa 0,0 l/m 0,0 km/h (0 Bft) SW 214 0 min 0,000 mm 0,0 UV-I 0 W/m -1,1 C 2,5 C 0,0 km/h (0 Bft) 0,00 %
25.02.2015 20:45 2,6 C 77 % 1020,5 hPa 0,0 l/m 0,0 km/h (0 Bft) S-SW 197 0 min 0,000 mm 0,0 UV-I 0 W/m -1,0 C 2,6 C 0,0 km/h (0 Bft) 0,00 %
25.02.2015 21:00 2,5 C 77 % 1020,6 hPa 0,0 l/m 0,0 km/h (0 Bft) S-SW 202 0 min 0,000 mm 0,0 UV-I 0 W/m -1,1 C 2,5 C 0,0 km/h (0 Bft) 0,00 %
25.02.2015 21:15 2,5 C 77 % 1020,7 hPa 0,0 l/m 0,0 km/h (0 Bft) S 186 0 min 0,000 mm 0,0 UV-I 0 W/m -1,1 C 2,5 C 0,0 km/h (0 Bft) 0,00 %
25.02.2015 21:30 2,5 C 77 % 1021,0 hPa 0,0 l/m 0,4 km/h (0 Bft) W-SW 256 0 min 0,000 mm 0,0 UV-I 0 W/m -1,1 C 2,5 C 4,0 km/h (1 Bft) 0,00 %
25.02.2015 21:45 2,3 C 73 % 1020,9 hPa 0,0 l/m 0,0 km/h (0 Bft) S 188 0 min 0,000 mm 0,0 UV-I 0 W/m -2,0 C 2,3 C 0,0 km/h (0 Bft) 0,00 %
25.02.2015 22:00 2,2 C 73 % 1021,1 hPa 0,0 l/m 0,0 km/h (0 Bft) SW 216 0 min 0,000 mm 0,0 UV-I 0 W/m -2,1 C 2,2 C 0,0 km/h (0 Bft) 0,00 %
25.02.2015 22:15 1,8 C 74 % 1021,0 hPa 0,0 l/m 0,0 km/h (0 Bft) SW 220 0 min 0,000 mm 0,0 UV-I 0 W/m -2,3 C 1,8 C 0,0 km/h (0 Bft) 0,00 %
25.02.2015 22:30 1,7 C 75 % 1021,2 hPa 0,0 l/m 0,0 km/h (0 Bft) SW 223 0 min 0,000 mm 0,0 UV-I 0 W/m -2,2 C 1,7 C 0,0 km/h (0 Bft) 0,00 %
25.02.2015 22:45 1,6 C 75 % 1021,2 hPa 0,0 l/m 0,0 km/h (0 Bft) W-SW 253 0 min 0,000 mm 0,0 UV-I 0 W/m -2,3 C 1,6 C 0,0 km/h (0 Bft) 0,00 %
25.02.2015 23:00 1,6 C 76 % 1021,2 hPa 0,0 l/m 0,0 km/h (0 Bft) S-SW 207 0 min 0,000 mm 0,0 UV-I 0 W/m -2,2 C 1,6 C 0,0 km/h (0 Bft) 0,00 %
25.02.2015 23:15 1,6 C 76 % 1021,0 hPa 0,0 l/m 0,0 km/h (0 Bft) S-SW 205 0 min 0,000 mm 0,0 UV-I 0 W/m -2,2 C 1,6 C 0,0 km/h (0 Bft) 0,00 %
25.02.2015 23:30 1,6 C 76 % 1021,3 hPa 0,0 l/m 0,0 km/h (0 Bft) SW 220 0 min 0,000 mm 0,0 UV-I 0 W/m -2,2 C 1,6 C 0,0 km/h (0 Bft) 0,00 %
25.02.2015 23:45 1,6 C 76 % 1021,2 hPa 0,0 l/m 2,9 km/h (1 Bft) SW 214 0 min 0,000 mm 0,0 UV-I 0 W/m -2,2 C 1,6 C 7,9 km/h (2 Bft) 0,00 %
_ Min-Zeit 03:30 12:30 00:00 - 00:00 - - - - - - 06:45 02:30 00:00 00:00
Minimum _ 1,3 C 64 % 1015,1 hPa - 0,0 km/h (0 Bft) - - - - - - -3,3 C -0,1 C 0,0 km/h (0 Bft) 0,00 %
_ Max-Zeit 12:00 00:00 23:30 00:00 02:30 - - 00:00 00:00 09:45 11:45 11:30 12:00 02:30 00:00
Maximum _ 5,4 C 77 % 1021,3 hPa 0,0 l/m 7,9 km/h
W-SW (2 Bft)
- - 0 min 0,000 mm 2,0 UV-I 242 W/m -0,1 C 5,4 C 11,9 km/h
W-SW (2 Bft)
0,00 %
Durchschnitt _ 2,8 C 72 % 1018,0 hPa #0,0 l/m 0,8 km/h (0 Bft) W-SW - #0 min. #0,000 mm 1,3 UV-I 116 W/m -1,8 C 2,8 C 2,0 km/h (1 Bft) 0,00 %